This demonstration page uses our WeatherBlox Daily Observations layout. Learn more.

Left ArrowRight Arrow

Hourly Observations for September 8, 2021

Temp ( °F °C ) Dew Point ( °F °C ) Humidity (%) Winds ( mph kmh ) Pressure ( in mb ) Visibility ( mi km ) Precip ( " mm )
12:52 am 00:52 Clear 63 17.2 54 12.2 73 73 Calm 29.98 1015 10 16 0.00 0.00
1:52 am 01:52 Clear 63 17.2 54 12.2 73 73 Calm 29.99 1016 10 16 0.00 0.00
2:52 am 02:52 Clear 62 16.7 53 11.7 73 73 N 5 7 29.99 1016 10 16 0.00 0.00
3:52 am 03:52 Clear 62 16.7 52 11.1 70 70 N 3 6 30.00 1016 10 16 0.00 0.00
4:52 am 04:52 Clear 55 12.8 51 10.6 87 87 NW 6 9 30.01 1016 10 16 0.00 0.00
5:52 am 05:52 Clear 57 13.9 52 11.1 83 83 NW 5 7 30.01 1016 10 16 0.00 0.00
6:52 am 06:52 Mostly Clear 55 12.8 50 10 83 83 NW 6 9 30.03 1017 10 16 0.00 0.00
7:52 am 07:52 Mostly Sunny 59 15 52 11.1 78 78 NNW 3 6 30.04 1017 10 16 0.00 0.00
8:52 am 08:52 Mostly Sunny 64 17.8 51 10.6 63 63 N 3 6 30.05 1018 10 16 0.00 0.00
9:52 am 09:52 Mostly Sunny 68 20 54 12.2 61 61 N 3 6 30.05 1018 10 16 0.00 0.00
10:52 am 10:52 Sunny 73 22.8 56 13.3 55 55 Calm 30.05 1018 10 16 0.00 0.00
11:52 am 11:52 Mostly Sunny 79 26.1 55 12.8 44 44 VRB 3 6 30.04 1017 10 16 0.00 0.00
12:52 pm 12:52 Mostly Sunny 81 27.2 51 10.6 35 35 N 7 11 30.04 1017 10 16 0.00 0.00
1:52 pm 13:52 Mostly Sunny 83 28.3 50 10 32 32 WNW 8 13 30.01 1016 10 16 0.00 0.00
2:52 pm 14:52 Mostly Sunny 83 28.3 49 9.4 31 31 NNW 12 19 30.00 1016 10 16 0.00 0.00
3:52 pm 15:52 Mostly Sunny 83 28.3 49 9.4 31 31 NNW 12 19 29.98 1015 10 16 0.00 0.00
4:52 pm 16:52 Partly Cloudy 83 28.3 49 9.4 31 31 NNW 14 22 29.98 1015 10 16 0.00 0.00
5:52 pm 17:52 Partly Cloudy 82 27.8 50 10 33 33 NNW 13 20 29.97 1015 10 16 0.00 0.00
6:52 pm 18:52 Partly Cloudy 77 25 52 11.1 42 42 NNW 8 13 29.98 1015 10 16 0.00 0.00
7:52 pm 19:52 Partly Cloudy 70 21.1 54 12.2 57 57 NW 6 9 29.99 1016 10 16 0.00 0.00
8:52 pm 20:52 Partly Cloudy 69 20.6 54 12.2 59 59 N 5 7 30.01 1016 10 16 0.00 0.00
9:52 pm 21:52 Partly Cloudy 65 18.3 55 12.8 70 70 NNW 5 7 30.02 1017 10 16 0.00 0.00
10:52 pm 22:52 Mostly Cloudy 60 15.6 55 12.8 84 84 N 6 9 30.03 1017 10 16 0.00 0.00
11:52 pm 23:52 Partly Cloudy 58 14.4 55 12.8 90 90 N 6 9 30.04 1017 10 16 0.00 0.00

Powered by AerisWeather